Погода в Шетпе

Казахстан     44°08′19″N   52°09′35″E
темп.,
°C
ветер,
м/с
пор.,
м/с
влажн.,
%
обл.,
%
осадки,
мм/ч
давл.,
гПа
погр.,
м
2 марта, вт
вт223:00−1сз228684 0.0 102752
02:00−1зюз22860 0.0 102859
05:00−1зюз12840 0.0 102723
08:00−1юз238673 0.0 102835
11:00+2юз567572 0.0 1029441
14:00+4зюз786471 0.0 10281013
17:00+4зюз796962 0.1 10261072
20:00+2юз698554 0.1 1025204
3 марта, ср
ср323:00+1юз598951 0.1 1025167
02:00+1юз711890 0.0 1023248
05:00+1юз711873 0.0 1022249
08:00+1ююз7119019 0.0 1020205
11:00+4юз9117110 0.0 1020544
14:00+6юз89560 0.0 10191146
17:00+7зюз675525 0.0 10171382
20:00+3сз358079 0.0 1017142
4 марта, чт
чт423:00+2зюз128557 0.0 101726
02:00+2з71296100 0.3 1018528
05:00+1зсз71192100 0.4 1019789
08:00−2зсз7128972 0.1 1021648
11:000зсз10126961 0.1 10251324
14:00+1зсз8106457 0.0 10261166
17:00+1зсз675042 0.0 1026940
20:00−1зсз34600 0.0 1027262
5 марта, пт
пт523:000юз35650 0.0 1028217
02:00−1ююз58680 0.0 1027252
05:00−1ююз69700 0.0 1026215
08:00−1ю46710 0.0 1025121
11:00+2ююв455314 0.0 1025330
14:00+5ю444481 0.0 1024621
17:00+5юз114291 0.0 1023727
20:00+2зюз0162100 0.0 102322
6 марта, сб
сб623:00+1юз016392 0.0 102422
02:00+1с116516 0.0 102322
05:000ююв01637 0.0 102322
08:00+1ю12590 0.0 102222
11:00+5ю45440 0.0 1023332
14:00+8ю67400 0.0 1022691
17:00+8ю79390 0.0 1019755
20:00+5ю57580 0.0 1018107